TimeEST,TemperatureF,Dew PointF,Humidity,Sea Level PressureIn,VisibilityMPH,Wind Direction,Wind SpeedMPH,Gust SpeedMPH,PrecipitationIn,Events,Conditions,WindDirDegrees,DateUTC
12:53 AM,30.9,9.0,40,30.21,10.0,Calm,Calm,-,N/A,,Clear,0,2013-02-19 05:53:00
1:53 AM,30.0,10.9,45,30.19,10.0,South,4.6,-,N/A,,Clear,190,2013-02-19 06:53:00
2:53 AM,28.0,12.9,53,30.17,10.0,Calm,Calm,-,N/A,,Clear,0,2013-02-19 07:53:00
3:53 AM,25.0,15.1,66,30.15,10.0,Calm,Calm,-,N/A,,Clear,0,2013-02-19 08:53:00
4:53 AM,24.1,16.0,71,30.14,10.0,Calm,Calm,-,N/A,,Clear,0,2013-02-19 09:53:00
5:53 AM,23.0,17.1,78,30.11,10.0,Calm,Calm,-,N/A,,Clear,0,2013-02-19 10:53:00
6:53 AM,21.9,15.1,75,30.09,10.0,Calm,Calm,-,N/A,,Clear,0,2013-02-19 11:53:00
7:53 AM,27.0,17.1,66,30.09,10.0,Calm,Calm,-,N/A,,Clear,0,2013-02-19 12:53:00
8:53 AM,30.9,18.0,59,30.07,10.0,Calm,Calm,-,N/A,,Clear,0,2013-02-19 13:53:00
9:53 AM,34.0,19.9,56,30.03,10.0,Calm,Calm,-,N/A,,Clear,0,2013-02-19 14:53:00
10:53 AM,41.0,23.0,49,30.00,10.0,West,5.8,-,N/A,,Clear,260,2013-02-19 15:53:00
11:53 AM,45.0,24.1,44,29.96,10.0,SSW,4.6,-,N/A,,Scattered Clouds,210,2013-02-19 16:53:00
12:42 PM,41.0,33.8,76,29.92,4.0,WSW,9.2,20.7,0.01,Rain,Light Rain,240,2013-02-19 17:42:00
1:26 PM,39.2,35.6,87,29.87,7.0,SSW,4.6,-,0.04,Rain,Light Rain,200,2013-02-19 18:26:00
1:37 PM,39.2,35.6,87,29.86,6.0,Variable,4.6,-,0.05,Rain,Light Rain,0,2013-02-19 18:37:00
1:53 PM,39.9,36.0,86,29.88,5.0,SSW,4.6,-,0.06,Rain,Light Rain,210,2013-02-19 18:53:00
2:53 PM,41.0,37.9,89,29.83,5.0,Calm,Calm,-,0.05,Rain,Light Rain,0,2013-02-19 19:53:00
3:40 PM,41.0,39.2,93,29.76,4.0,Calm,Calm,-,0.03,Rain,Light Rain,0,2013-02-19 20:40:00
3:53 PM,41.0,39.0,93,29.78,4.0,Calm,Calm,-,0.04,Rain,Light Rain,0,2013-02-19 20:53:00
4:15 PM,39.2,39.2,100,29.75,3.0,Calm,Calm,-,0.03,Rain,Light Rain,0,2013-02-19 21:15:00
4:53 PM,39.9,39.0,97,29.75,1.5,Calm,Calm,-,0.07,Rain,Light Rain,0,2013-02-19 21:53:00
5:13 PM,39.2,37.4,93,29.73,0.8,Calm,Calm,-,0.01,Rain,Light Rain,0,2013-02-19 22:13:00
5:31 PM,39.2,39.2,100,29.72,1.0,Calm,Calm,-,0.02,Rain,Light Rain,0,2013-02-19 22:31:00
5:44 PM,39.2,39.2,100,29.72,2.0,Calm,Calm,-,0.03,Rain,Light Rain,0,2013-02-19 22:44:00
5:53 PM,39.9,39.0,97,29.74,2.0,Calm,Calm,-,0.04,Rain,Light Rain,0,2013-02-19 22:53:00
6:04 PM,39.2,39.2,100,29.71,1.8,Calm,Calm,-,0.01,Rain,Light Rain,0,2013-02-19 23:04:00
6:09 PM,39.2,39.2,100,29.70,2.0,Calm,Calm,-,0.01,Rain,Light Rain,0,2013-02-19 23:09:00
6:12 PM,39.2,39.2,100,29.70,1.8,Calm,Calm,-,0.01,Rain,Light Rain,0,2013-02-19 23:12:00
6:18 PM,39.2,39.2,100,29.72,1.5,Calm,Calm,-,0.01,Rain,Light Rain,0,2013-02-19 23:18:00
6:30 PM,39.2,39.2,100,29.71,3.0,Calm,Calm,-,0.01,Rain,Light Rain,0,2013-02-19 23:30:00
7:53 PM,39.0,39.0,100,29.71,1.5,WNW,3.5,-,0.00,Rain,Light Rain,290,2013-02-20 00:53:00
8:07 PM,41.0,39.2,93,29.69,2.5,West,4.6,-,0.01,Rain,Light Rain,280,2013-02-20 01:07:00
8:11 PM,41.0,39.2,93,29.69,3.0,Variable,3.5,-,0.01,Rain,Light Rain,0,2013-02-20 01:11:00
8:27 PM,41.0,39.2,93,29.69,6.0,West,4.6,-,0.01,Rain,Light Rain,270,2013-02-20 01:27:00
8:53 PM,42.1,39.0,89,29.72,10.0,Variable,3.5,-,0.01,,Overcast,0,2013-02-20 01:53:00
9:23 PM,41.0,33.8,76,29.70,10.0,West,10.4,17.3,0.00,,Overcast,280,2013-02-20 02:23:00
9:53 PM,39.9,30.9,70,29.72,10.0,West,8.1,-,0.00,,Mostly Cloudy,280,2013-02-20 02:53:00
10:53 PM,39.0,26.1,60,29.73,10.0,WNW,13.8,23.0,N/A,,Clear,290,2013-02-20 03:53:00
11:53 PM,37.0,23.0,57,29.75,10.0,West,12.7,23.0,N/A,,Clear,270,2013-02-20 04:53:00